Time,TemperatureF,DewpointF,PressureIn,WindDirection,WindDirectionDegrees,WindSpeedMPH,WindSpeedGustMPH,Humidity,HourlyPrecipIn,Conditions,Clouds,dailyrainin,SoftwareType,DateUTC
2013-04-23 00:03:00,44.0,36.0,30.19,ENE,77,0.0,2.0,74,0.00,,,0.00,,2013-04-23 04:03:00,
2013-04-23 00:13:00,44.0,36.0,30.19,ENE,77,0.0,2.0,74,0.00,,,0.00,,2013-04-23 04:13:00,
2013-04-23 00:23:00,44.0,37.0,30.18,East,83,0.0,2.0,76,0.00,,,0.00,,2013-04-23 04:23:00,
2013-04-23 00:33:00,44.0,37.0,30.17,East,96,0.0,2.0,77,0.00,,,0.00,,2013-04-23 04:33:00,
2013-04-23 00:43:00,44.0,37.0,30.17,East,96,0.0,2.0,77,0.00,,,0.00,,2013-04-23 04:43:00,
2013-04-23 00:53:00,43.0,37.0,30.17,East,99,0.0,1.0,78,0.00,,,0.00,,2013-04-23 04:53:00,
2013-04-23 01:02:00,43.0,37.0,30.16,ESE,120,0.0,0.0,79,0.00,,,0.00,,2013-04-23 05:02:00,
2013-04-23 01:12:00,43.0,37.0,30.16,ESE,120,0.0,0.0,79,0.00,,,0.00,,2013-04-23 05:12:00,
2013-04-23 01:22:00,42.0,36.0,30.16,ESE,120,0.0,0.0,80,0.00,,,0.00,,2013-04-23 05:22:00,
2013-04-23 01:32:00,42.0,37.0,30.16,ESE,120,0.0,0.0,83,0.00,,,0.00,,2013-04-23 05:32:00,
2013-04-23 01:42:00,42.0,37.0,30.16,ESE,120,0.0,0.0,83,0.00,,,0.00,,2013-04-23 05:42:00,
2013-04-23 01:52:00,43.0,38.0,30.16,SE,132,0.0,1.0,82,0.00,,,0.00,,2013-04-23 05:52:00,
2013-04-23 02:02:00,43.0,38.0,30.16,SE,132,0.0,1.0,82,0.00,,,0.00,,2013-04-23 06:02:00,
2013-04-23 02:12:00,43.0,38.0,30.16,SE,132,0.0,1.0,82,0.00,,,0.00,,2013-04-23 06:12:00,
2013-04-23 02:22:00,42.0,37.0,30.15,SE,132,0.0,0.0,83,0.00,,,0.00,,2013-04-23 06:22:00,
2013-04-23 02:33:00,42.0,38.0,30.15,SE,132,0.0,0.0,84,0.00,,,0.00,,2013-04-23 06:33:00,
2013-04-23 02:42:00,42.0,38.0,30.15,SE,132,0.0,0.0,84,0.00,,,0.00,,2013-04-23 06:42:00,
2013-04-23 02:52:00,41.0,37.0,30.14,SE,133,0.0,0.0,85,0.00,,,0.00,,2013-04-23 06:52:00,
2013-04-23 03:02:00,41.0,37.0,30.14,SE,133,0.0,0.0,86,0.00,,,0.00,,2013-04-23 07:02:00,
2013-04-23 03:11:00,41.0,37.0,30.14,SE,133,0.0,0.0,86,0.00,,,0.00,,2013-04-23 07:11:00,
2013-04-23 03:22:00,41.0,37.0,30.13,SE,132,0.0,0.0,86,0.00,,,0.00,,2013-04-23 07:22:00,
2013-04-23 03:32:00,41.0,38.0,30.12,SE,132,0.0,0.0,88,0.00,,,0.00,,2013-04-23 07:32:00,
2013-04-23 03:42:00,41.0,38.0,30.12,SE,132,0.0,0.0,88,0.00,,,0.00,,2013-04-23 07:42:00,
2013-04-23 03:52:00,40.0,36.0,30.12,SE,132,0.0,0.0,87,0.00,,,0.00,,2013-04-23 07:52:00,
2013-04-23 04:02:00,40.0,36.0,30.11,SE,132,0.0,0.0,87,0.00,,,0.00,,2013-04-23 08:02:00,
2013-04-23 04:11:00,40.0,36.0,30.11,SE,132,0.0,0.0,87,0.00,,,0.00,,2013-04-23 08:11:00,
2013-04-23 04:21:00,42.0,37.0,30.11,SE,132,0.0,0.0,83,0.00,,,0.00,,2013-04-23 08:21:00,
2013-04-23 04:32:00,43.0,37.0,30.11,SE,146,1.0,3.0,78,0.00,,,0.00,,2013-04-23 08:32:00,
2013-04-23 04:42:00,43.0,37.0,30.11,SE,146,1.0,3.0,78,0.00,,,0.00,,2013-04-23 08:42:00,
2013-04-23 04:52:00,44.0,36.0,30.10,SE,142,1.0,4.0,74,0.00,,,0.00,,2013-04-23 08:52:00,
2013-04-23 05:02:00,45.0,36.0,30.10,SE,137,1.0,4.0,71,0.00,,,0.00,,2013-04-23 09:02:00,
2013-04-23 05:11:00,45.0,36.0,30.10,SE,137,1.0,4.0,71,0.00,,,0.00,,2013-04-23 09:11:00,
2013-04-23 05:21:00,45.0,36.0,30.10,SE,130,1.0,4.0,70,0.00,,,0.00,,2013-04-23 09:21:00,
2013-04-23 05:33:00,45.0,35.0,30.10,SE,139,1.0,3.0,68,0.00,,,0.00,,2013-04-23 09:33:00,
2013-04-23 05:43:00,45.0,35.0,30.10,SE,139,1.0,3.0,68,0.00,,,0.00,,2013-04-23 09:43:00,
2013-04-23 05:52:00,46.0,35.0,30.09,SE,139,3.0,6.0,66,0.00,,,0.00,,2013-04-23 09:52:00,
2013-04-23 06:03:00,46.0,35.0,30.08,SE,143,2.0,5.0,64,0.00,,,0.00,,2013-04-23 10:03:00,
2013-04-23 06:13:00,46.0,35.0,30.08,SE,143,2.0,5.0,64,0.00,,,0.00,,2013-04-23 10:13:00,
2013-04-23 06:23:00,46.0,35.0,30.08,SE,134,2.0,6.0,64,0.00,,,0.00,,2013-04-23 10:23:00,
2013-04-23 06:33:00,46.0,34.0,30.07,SE,135,2.0,6.0,63,0.00,,,0.00,,2013-04-23 10:33:00,
2013-04-23 06:42:00,46.0,34.0,30.07,SE,135,2.0,6.0,63,0.00,,,0.00,,2013-04-23 10:42:00,
2013-04-23 06:52:00,46.0,34.0,30.06,SE,129,2.0,6.0,62,0.00,,,0.00,,2013-04-23 10:52:00,
2013-04-23 07:03:00,46.0,33.0,30.06,SE,129,2.0,6.0,61,0.00,,,0.00,,2013-04-23 11:03:00,
2013-04-23 07:12:00,46.0,33.0,30.06,SE,129,2.0,6.0,61,0.00,,,0.00,,2013-04-23 11:12:00,
2013-04-23 07:22:00,47.0,33.0,30.07,SE,141,4.0,8.0,59,0.00,,,0.00,,2013-04-23 11:22:00,
2013-04-23 07:32:00,47.0,33.0,30.08,SSE,152,2.0,5.0,57,0.00,,,0.00,,2013-04-23 11:32:00,
2013-04-23 07:43:00,47.0,33.0,30.08,SSE,152,2.0,5.0,57,0.00,,,0.00,,2013-04-23 11:43:00,
2013-04-23 07:52:00,48.0,32.0,30.08,SE,133,4.0,9.0,54,0.00,,,0.00,,2013-04-23 11:52:00,
2013-04-23 08:02:00,49.0,33.0,30.08,South,174,3.0,7.0,54,0.00,,,0.00,,2013-04-23 12:02:00,
2013-04-23 08:12:00,49.0,33.0,30.08,South,174,3.0,7.0,54,0.00,,,0.00,,2013-04-23 12:12:00,
2013-04-23 08:22:00,49.0,33.0,30.09,SSW,200,3.0,6.0,53,0.00,,,0.00,,2013-04-23 12:22:00,
2013-04-23 08:32:00,49.0,33.0,30.08,SSE,152,3.0,6.0,53,0.00,,,0.00,,2013-04-23 12:32:00,
2013-04-23 08:42:00,49.0,33.0,30.08,SSE,152,3.0,6.0,53,0.00,,,0.00,,2013-04-23 12:42:00,
2013-04-23 08:52:00,51.0,34.0,30.08,SSE,153,3.0,7.0,52,0.00,,,0.00,,2013-04-23 12:52:00,
2013-04-23 09:01:00,52.0,34.0,30.07,SE,131,3.0,9.0,51,0.00,,,0.00,,2013-04-23 13:01:00,
2013-04-23 09:12:00,52.0,34.0,30.07,SE,131,3.0,9.0,51,0.00,,,0.00,,2013-04-23 13:12:00,
2013-04-23 09:22:00,54.0,35.0,30.08,SE,126,3.0,7.0,49,0.00,,,0.00,,2013-04-23 13:22:00,
2013-04-23 09:32:00,55.0,35.0,30.07,SE,146,5.0,9.0,46,0.00,,,0.00,,2013-04-23 13:32:00,
2013-04-23 09:42:00,55.0,35.0,30.07,SE,146,5.0,9.0,46,0.00,,,0.00,,2013-04-23 13:42:00,
2013-04-23 09:52:00,56.0,36.0,30.06,SE,134,2.0,8.0,46,0.00,,,0.00,,2013-04-23 13:52:00,
2013-04-23 10:02:00,58.0,37.0,30.06,SW,215,3.0,9.0,45,0.00,,,0.00,,2013-04-23 14:02:00,
2013-04-23 10:11:00,58.0,37.0,30.06,SW,215,3.0,9.0,45,0.00,,,0.00,,2013-04-23 14:11:00,
2013-04-23 10:22:00,59.0,37.0,30.06,SE,129,3.0,9.0,44,0.00,,,0.00,,2013-04-23 14:22:00,
2013-04-23 10:32:00,60.0,37.0,30.06,SSE,155,4.0,8.0,43,0.00,,,0.00,,2013-04-23 14:32:00,
2013-04-23 10:42:00,60.0,37.0,30.06,SSE,155,4.0,8.0,43,0.00,,,0.00,,2013-04-23 14:42:00,
2013-04-23 10:52:00,62.0,39.0,30.06,SSE,167,4.0,10.0,42,0.00,,,0.00,,2013-04-23 14:52:00,
2013-04-23 11:01:00,62.0,39.0,30.06,SSE,167,4.0,10.0,42,0.00,,,0.00,,2013-04-23 15:01:00,
2013-04-23 11:12:00,63.0,39.0,30.04,South,187,5.0,10.0,41,0.00,,,0.00,,2013-04-23 15:12:00,
2013-04-23 11:22:00,64.0,40.0,30.03,South,191,4.0,11.0,41,0.00,,,0.00,,2013-04-23 15:22:00,
2013-04-23 11:32:00,66.0,42.0,30.03,SE,134,2.0,8.0,41,0.00,,,0.00,,2013-04-23 15:32:00,
2013-04-23 11:43:00,66.0,42.0,30.03,SE,134,2.0,8.0,41,0.00,,,0.00,,2013-04-23 15:43:00,
2013-04-23 11:53:00,66.0,42.0,30.03,SE,139,2.0,12.0,41,0.00,,,0.00,,2013-04-23 15:53:00,
2013-04-23 12:03:00,67.0,41.0,30.03,SSE,157,5.0,12.0,38,0.00,,,0.00,,2013-04-23 16:03:00,
2013-04-23 12:12:00,67.0,41.0,30.03,SSE,157,5.0,12.0,38,0.00,,,0.00,,2013-04-23 16:12:00,
2013-04-23 12:23:00,67.0,41.0,30.02,WSW,243,5.0,12.0,38,0.00,,,0.00,,2013-04-23 16:23:00,
2013-04-23 12:34:00,68.0,41.0,30.02,South,169,6.0,12.0,38,0.00,,,0.00,,2013-04-23 16:34:00,
2013-04-23 12:43:00,68.0,41.0,30.02,South,169,6.0,12.0,38,0.00,,,0.00,,2013-04-23 16:43:00,
2013-04-23 12:52:00,69.0,42.0,30.02,SE,134,4.0,10.0,37,0.00,,,0.00,,2013-04-23 16:52:00,
2013-04-23 13:02:00,70.0,43.0,30.01,South,190,6.0,13.0,37,0.00,,,0.00,,2013-04-23 17:02:00,
2013-04-23 13:12:00,70.0,43.0,30.01,South,190,6.0,13.0,37,0.00,,,0.00,,2013-04-23 17:12:00,
2013-04-23 13:22:00,70.0,43.0,30.00,SSW,201,5.0,13.0,37,0.00,,,0.00,,2013-04-23 17:22:00,
2013-04-23 13:33:00,71.0,43.0,29.98,West,259,5.0,14.0,36,0.00,,,0.00,,2013-04-23 17:33:00,
2013-04-23 13:42:00,71.0,43.0,29.98,West,259,5.0,14.0,36,0.00,,,0.00,,2013-04-23 17:42:00,
2013-04-23 13:53:00,72.0,42.0,29.97,South,191,4.0,11.0,34,0.00,,,0.00,,2013-04-23 17:53:00,
2013-04-23 14:02:00,72.0,43.0,29.96,SW,232,4.0,10.0,35,0.00,,,0.00,,2013-04-23 18:02:00,
2013-04-23 14:12:00,72.0,43.0,29.96,SW,232,4.0,10.0,35,0.00,,,0.00,,2013-04-23 18:12:00,
2013-04-23 14:22:00,72.0,42.0,29.96,SSE,166,5.0,13.0,34,0.00,,,0.00,,2013-04-23 18:22:00,
2013-04-23 14:32:00,72.0,43.0,29.95,SSW,194,4.0,11.0,35,0.00,,,0.00,,2013-04-23 18:32:00,
2013-04-23 14:42:00,72.0,43.0,29.95,SSW,194,4.0,11.0,35,0.00,,,0.00,,2013-04-23 18:42:00,
2013-04-23 14:52:00,72.0,43.0,29.94,SSE,155,6.0,12.0,35,0.00,,,0.00,,2013-04-23 18:52:00,
2013-04-23 15:02:00,71.0,42.0,29.93,South,179,4.0,11.0,35,0.00,,,0.00,,2013-04-23 19:02:00,
2013-04-23 15:11:00,71.0,42.0,29.93,South,179,4.0,11.0,35,0.00,,,0.00,,2013-04-23 19:11:00,
2013-04-23 15:22:00,71.0,42.0,29.93,SSW,204,6.0,14.0,35,0.00,,,0.00,,2013-04-23 19:22:00,
2013-04-23 15:32:00,72.0,43.0,29.92,ESE,113,9.0,16.0,35,0.00,,,0.00,,2013-04-23 19:32:00,
2013-04-23 15:42:00,72.0,43.0,29.92,ESE,113,9.0,16.0,35,0.00,,,0.00,,2013-04-23 19:42:00,
2013-04-23 15:52:00,72.0,44.0,29.91,SSE,166,5.0,18.0,36,0.00,,,0.00,,2013-04-23 19:52:00,
2013-04-23 16:02:00,71.0,43.0,29.91,SE,134,6.0,15.0,36,0.00,,,0.00,,2013-04-23 20:02:00,
2013-04-23 16:11:00,71.0,43.0,29.91,SE,134,6.0,15.0,36,0.00,,,0.00,,2013-04-23 20:11:00,
2013-04-23 16:22:00,71.0,43.0,29.90,SW,233,6.0,11.0,37,0.00,,,0.00,,2013-04-23 20:22:00,
2013-04-23 16:32:00,70.0,43.0,29.89,South,176,6.0,19.0,38,0.00,,,0.00,,2013-04-23 20:32:00,
2013-04-23 16:42:00,70.0,43.0,29.89,South,176,6.0,19.0,38,0.00,,,0.00,,2013-04-23 20:42:00,
2013-04-23 16:52:00,70.0,44.0,29.89,SE,128,7.0,19.0,39,0.00,,,0.00,,2013-04-23 20:52:00,
2013-04-23 17:02:00,70.0,45.0,29.88,WSW,237,5.0,12.0,41,0.00,,,0.00,,2013-04-23 21:02:00,
2013-04-23 17:12:00,70.0,45.0,29.88,WSW,237,5.0,12.0,41,0.00,,,0.00,,2013-04-23 21:12:00,
2013-04-23 17:22:00,69.0,45.0,29.88,South,169,5.0,18.0,42,0.00,,,0.00,,2013-04-23 21:22:00,
2013-04-23 17:33:00,69.0,46.0,29.88,SSE,153,4.0,10.0,43,0.00,,,0.00,,2013-04-23 21:33:00,
2013-04-23 17:43:00,69.0,46.0,29.88,SSE,153,4.0,10.0,43,0.00,,,0.00,,2013-04-23 21:43:00,
2013-04-23 17:52:00,69.0,47.0,29.87,SSE,157,4.0,11.0,45,0.00,,,0.00,,2013-04-23 21:52:00,
2013-04-23 18:03:00,69.0,48.0,29.86,SSW,207,4.0,14.0,47,0.00,,,0.00,,2013-04-23 22:03:00,
2013-04-23 18:12:00,69.0,48.0,29.86,SSW,207,4.0,14.0,47,0.00,,,0.00,,2013-04-23 22:12:00,
2013-04-23 18:23:00,64.0,51.0,29.88,South,169,5.0,15.0,62,0.03,,,0.03,,2013-04-23 22:23:00,
2013-04-23 18:33:00,60.0,53.0,29.88,SSE,158,2.0,5.0,77,0.03,,,0.03,,2013-04-23 22:33:00,
2013-04-23 18:42:00,60.0,53.0,29.88,SSE,158,2.0,5.0,77,0.03,,,0.03,,2013-04-23 22:42:00,
2013-04-23 18:52:00,60.0,53.0,29.88,SE,141,2.0,5.0,79,0.04,,,0.04,,2013-04-23 22:52:00,
2013-04-23 19:03:00,60.0,54.0,29.89,SW,226,2.0,7.0,80,0.06,,,0.06,,2013-04-23 23:03:00,
2013-04-23 19:12:00,60.0,54.0,29.89,SW,226,2.0,7.0,80,0.06,,,0.06,,2013-04-23 23:12:00,
2013-04-23 19:22:00,58.0,54.0,29.91,West,262,4.0,10.0,86,0.15,,,0.18,,2013-04-23 23:22:00,
2013-04-23 19:32:00,57.0,54.0,29.89,WSW,240,3.0,7.0,89,0.19,,,0.22,,2013-04-23 23:32:00,
2013-04-23 19:42:00,57.0,54.0,29.89,WSW,240,3.0,7.0,89,0.19,,,0.22,,2013-04-23 23:42:00,
2013-04-23 19:52:00,57.0,54.0,29.88,SW,226,1.0,5.0,90,0.19,,,0.23,,2013-04-23 23:52:00,
2013-04-23 20:02:00,57.0,54.0,29.87,WSW,240,0.0,4.0,90,0.17,,,0.23,,2013-04-24 00:02:00,
2013-04-23 20:11:00,57.0,54.0,29.87,WSW,240,0.0,4.0,90,0.17,,,0.23,,2013-04-24 00:11:00,
2013-04-23 20:22:00,57.0,54.0,29.87,SSW,194,0.0,2.0,90,0.05,,,0.23,,2013-04-24 00:22:00,
2013-04-23 20:32:00,56.0,53.0,29.87,SSW,211,0.0,2.0,91,0.01,,,0.23,,2013-04-24 00:32:00,
2013-04-23 20:42:00,56.0,53.0,29.87,SSW,211,0.0,2.0,91,0.01,,,0.23,,2013-04-24 00:42:00,
2013-04-23 20:52:00,56.0,53.0,29.87,SSW,194,0.0,3.0,90,0.00,,,0.23,,2013-04-24 00:52:00,
2013-04-23 21:02:00,56.0,53.0,29.87,SE,143,0.0,2.0,90,0.01,,,0.24,,2013-04-24 01:02:00,
2013-04-23 21:11:00,56.0,53.0,29.87,SE,143,0.0,2.0,90,0.01,,,0.24,,2013-04-24 01:11:00,
2013-04-23 21:21:00,56.0,53.0,29.87,SE,139,0.0,0.0,91,0.02,,,0.25,,2013-04-24 01:21:00,
2013-04-23 21:32:00,56.0,53.0,29.86,SE,138,0.0,0.0,91,0.03,,,0.26,,2013-04-24 01:32:00,
2013-04-23 21:42:00,56.0,53.0,29.86,SE,138,0.0,0.0,91,0.03,,,0.26,,2013-04-24 01:42:00,
2013-04-23 21:52:00,56.0,54.0,29.85,SE,136,0.0,0.0,92,0.03,,,0.26,,2013-04-24 01:52:00,
2013-04-23 22:02:00,55.0,53.0,29.85,SE,135,0.0,0.0,93,0.02,,,0.26,,2013-04-24 02:02:00,
2013-04-23 22:20:00,55.0,53.0,29.85,SE,135,0.0,0.0,93,0.02,,,0.26,,2013-04-24 02:20:00,
2013-04-23 22:30:00,55.0,53.0,29.84,SE,135,0.0,0.0,93,0.03,,,0.28,,2013-04-24 02:30:00,
2013-04-23 22:41:00,55.0,53.0,29.85,SE,136,0.0,0.0,93,0.02,,,0.28,,2013-04-24 02:41:00,
2013-04-23 22:49:00,55.0,53.0,29.85,SE,136,0.0,0.0,93,0.02,,,0.28,,2013-04-24 02:49:00,
2013-04-23 22:56:00,55.0,53.0,29.84,SE,135,0.0,1.0,94,0.03,,,0.28,,2013-04-24 02:56:00,
2013-04-23 23:12:00,55.0,53.0,29.83,SE,125,1.0,1.0,94,0.03,,,0.28,,2013-04-24 03:12:00,
2013-04-23 23:18:00,55.0,53.0,29.83,SE,125,1.0,1.0,94,0.03,,,0.28,,2013-04-24 03:18:00,
2013-04-23 23:31:00,55.0,53.0,29.83,SE,132,0.0,1.0,94,0.02,,,0.30,,2013-04-24 03:31:00,
2013-04-23 23:42:00,55.0,53.0,29.81,ESE,121,0.0,0.0,94,0.03,,,0.31,,2013-04-24 03:42:00,
2013-04-23 23:57:00,55.0,53.0,29.80,ESE,123,0.0,2.0,94,0.02,,,0.31,,2013-04-24 03:57:00,